Location: ??????
(55.2000°N, 38.3000°E)
Time: 08:49:51
(UTC+00:00)

ADEOS Rocket - Pass Details

Date: 15 November 2025
Orbit: 859 x 1304 km, 98.7° (Epoch: 14 December)

Event Time Altitude Azimuth Distance (km) Brightness Sun altitude
Rises 01:58:49 0° 15° (NNE) 3,818 6.3 -25.4°
Reaches altitude 10° 02:01:18 10° 10° (N) 2,921 5.6 -25.1°
Maximum altitude 02:07:41 50° 298° (WNW) 1,448 3.5 -24.2°
Enters shadow 02:08:54 45° 268° (W) 1,545 3.5 -24.0°
